TimeCDT,TemperatureF,Dew PointF,Humidity,Sea Level PressureIn,VisibilityMPH,Wind Direction,Wind SpeedMPH,Gust SpeedMPH,PrecipitationIn,Events,Conditions,WindDirDegrees,DateUTC
12:55 AM,-9999,-9999,N/A,30.19,1.0,Calm,Calm,-,N/A,,Mist,0,2012-10-13 05:55:00
1:46 AM,-9999,-9999,N/A,30.18,1.2,Calm,Calm,-,N/A,,Partly Cloudy,0,2012-10-13 06:46:00
1:53 AM,-9999,-9999,N/A,30.18,0.5,Calm,Calm,-,N/A,Fog,Fog,0,2012-10-13 06:53:00
1:55 AM,-9999,-9999,N/A,30.19,0.5,Calm,Calm,-,N/A,Fog,Fog,0,2012-10-13 06:55:00
1:59 AM,-9999,-9999,N/A,30.18,2.0,Calm,Calm,-,N/A,,Partly Cloudy,0,2012-10-13 06:59:00
2:12 AM,-9999,-9999,N/A,30.18,1.2,Calm,Calm,-,N/A,,Partly Cloudy,0,2012-10-13 07:12:00
2:30 AM,-9999,-9999,N/A,30.18,4.0,Calm,Calm,-,N/A,,Haze,0,2012-10-13 07:30:00
2:55 AM,-9999,-9999,N/A,30.19,0.2,Calm,Calm,-,N/A,Fog,Fog,0,2012-10-13 07:55:00
3:55 AM,-9999,-9999,N/A,30.19,0.5,Calm,Calm,-,N/A,Fog,Fog,0,2012-10-13 08:55:00
4:55 AM,-9999,-9999,N/A,30.19,1.5,Calm,Calm,-,N/A,,Overcast,0,2012-10-13 09:55:00
5:55 AM,69.8,61.0,73,30.20,3.0,Calm,Calm,-,N/A,,Haze,0,2012-10-13 10:55:00
6:55 AM,69.3,60.1,72,30.20,1.5,Calm,Calm,-,N/A,,Haze,0,2012-10-13 11:55:00
7:55 AM,70.3,59.0,67,30.22,3.0,Calm,Calm,-,N/A,,Haze,0,2012-10-13 12:55:00
8:55 AM,74.8,62.1,64,30.22,10.0,SSE,3.5,-,N/A,,Partly Cloudy,150,2012-10-13 13:55:00
9:55 AM,78.4,69.1,73,30.24,10.0,SE,8.1,-,N/A,,Scattered Clouds,130,2012-10-13 14:55:00
10:55 AM,79.3,66.9,66,30.23,10.0,SE,11.5,17.3,N/A,,Scattered Clouds,140,2012-10-13 15:55:00
11:55 AM,81.3,66.0,60,30.22,10.0,SSE,6.9,-,N/A,,Scattered Clouds,160,2012-10-13 16:55:00
1:55 PM,82.4,66.9,59,30.16,10.0,ESE,5.8,-,N/A,,Scattered Clouds,120,2012-10-13 18:55:00
2:55 PM,-9999,-9999,N/A,30.14,10.0,ESE,6.9,-,N/A,,Mostly Cloudy,120,2012-10-13 19:55:00
3:55 PM,82.0,68.0,62,30.13,10.0,SE,10.4,-,N/A,,Scattered Clouds,140,2012-10-13 20:55:00
4:55 PM,81.3,68.0,64,30.12,10.0,ESE,10.4,-,N/A,,Scattered Clouds,110,2012-10-13 21:55:00
5:55 PM,79.7,69.1,70,30.12,10.0,SE,8.1,-,N/A,,Mostly Cloudy,140,2012-10-13 22:55:00
6:55 PM,77.7,68.0,72,30.12,10.0,SE,8.1,-,N/A,,Scattered Clouds,130,2012-10-13 23:55:00
7:55 PM,-9999,-9999,N/A,30.14,10.0,ESE,6.9,-,N/A,,Partly Cloudy,120,2012-10-14 00:55:00
8:55 PM,75.9,70.0,82,30.14,10.0,ESE,6.9,-,N/A,,Scattered Clouds,120,2012-10-14 01:55:00
9:55 PM,75.7,70.0,82,30.14,10.0,SE,5.8,-,N/A,,Clear,130,2012-10-14 02:55:00
10:55 PM,76.1,70.0,81,30.14,10.0,SSE,5.8,-,N/A,,Scattered Clouds,150,2012-10-14 03:55:00
11:55 PM,-9999,-9999,N/A,30.12,10.0,SE,4.6,-,N/A,,Partly Cloudy,140,2012-10-14 04:55:00